    Observer details:
    046 Klet.  Observers M. Honkova, M. Tichy, J. Ticha, M. Kocer.  Measurer
        M. Tichy.  0.57-m f/5.2 reflector + CCD.
    204 Schiaparelli Observatory.  Observer L. Buzzi.  0.60-m f/4.64 reflector
        + CCD.
    213 Observatorio Montcabre.  Observer R. Naves.  Measurer M. Campas.  0.30-m
        f/10 Schmidt-Cassegrain + CCD.
    215 Buchloe.  Observer W. Hasubick.  0.44-m f/4.6 reflector + CCD.
    235 CAST Observatory, Talmassons.  Observers R. Ligustri, M. P. Benvenuti.
        Measurer R. Ligustri.  0.35-m f/6 reflector + CCD.
    349 Ageo.  Observer K. Kadota.  0.25-m f/5.0 reflector + CCD.
    367 Yatsuka.  Observer H. Abe.  0.26-m f/6.0 reflector + CCD.
    568 Mauna Kea.  Observers M. Micheli, G. T. Elliott, D. J. Tholen.  Measurer
        D. J. Tholen.  2.24-m University of Hawaii reflector.
    900 Moriyama.  Observer Y. Ikari.  0.26-m f/7.0 reflector + CCD.
    A71 Stixendorf.  Observers E. Guido, M. Jaeger, E. Prosperi, G. Sostero,
        W. Vollmann.  Measurer W. Vollmann.  0.20-m f/2.8 reflector + CCD.
    B69 Owls and Ravens Observatory, Holzgerlingen.  Observer S. Beck.  0.20-m f/4
        Newtonian reflector + CCD.
    D93 Sendai Astronomical Observatory.  Observer M. Koishikawa.  1.3-m f/4.85
        reflector + CCD.
    H06 RAS Observatory, Mayhill.  Observer H. Sato.  0.25-m f/3.4 reflector + CCD.
    H10 Tzec Maun Observatory, Mayhill.  Observer S. Plaksa.  0.18-m f/2.8
        reflector + CCD.
    H45 Arkansas Sky Obs., Petit Jean Mountain South.  Observer P. C. Sherrod.
        0.51-m f/4.3 astrograph + CCD.
    I99 Observatorio Blanquita, Vaciamadrid.  Observer F. Limon.  0.20-m f/10
        Schmidt-Cassegrain + CCD.
    J08 Observatorio Zonalunar, Puzol.  Observer A. Carreno.  Measurer J. Piqueras.
        0.20-m f/5 Newtonian reflector + CCD.
    J38 Observatorio La Vara, Valdes.  Observer F. Garcia.  0.25-m f/8.1 reflector
        + CCD.
    J53 Posadas.  Observer R. Benavides.  0.28-m f/6.3 Schmidt-Cassegrain + CCD.
    
    Orbital elements:
        C/2010 G1 (Boattini)
    T 2010 Apr. 2.530 TT                                    MPC
    q   1.20501              (2000.0)            P               Q
                       Peri.  168.621       -0.255746       -0.247475
                       Node   287.430       +0.792192       +0.500414
    e   1.0            Incl.   78.381       +0.554099       -0.829663
    From 197 observations 2010 Apr. 5-12.
    
    Ephemeris:
        C/2010 G1 (Boattini)
    Date    TT    R. A. (2000) Decl.     Delta      r     Elong.  Phase   m1    m2
    2010 04 04    04 04.97   +28 26.9    1.547    1.205    51.2    40.3  14.3
    2010 04 14    04 36.47   +21 36.6    1.660    1.218    46.8    36.9  14.5
    2010 04 24    05 02.66   +15 25.8    1.781    1.251    43.0    33.3  14.7
    2010 05 04    05 25.38   +09 52.3    1.902    1.301    39.9    29.8  15.0
    2010 05 14    05 45.88   +04 49.4    2.019    1.366    37.6    26.9  15.4
    2010 05 24    06 04.98   +00 09.4    2.127    1.443    36.4    24.6  15.7
    2010 06 03    06 23.20   -04 14.7    2.227    1.529    36.1    23.0  16.1
    2010 06 13    06 40.90   -08 28.9    2.318    1.623    36.8    22.0  16.4
    2010 06 23    06 58.33   -12 37.9    2.401    1.722    38.3    21.4  16.8
    
    Brian G. Marsden             (C) Copyright 2010 MPC           M.P.E.C. 2010-G103
    

    Read MPEC 2010-G102 Read MPEC 2010-G104


    MPEC number:

    Enter an MPEC number in one of the following forms:

    • 1997-B01 (the full form)
    • J97B01 (the packed version of the full form)
    • B01 (the abbreviated form)